星链-5946 (STARLINK-5946 )

导读

STARLINK-5946是美国SpaceX公司星链(Starlink)项目的卫星,于2023年3月24日发射升空。作为星链星座的组成部分,它旨在为全球提供高速低延迟互联网覆盖,尤其服务偏远地区与网络基础设施薄弱区域,该卫星入轨后扩充了星链星座规模,推进了全球卫星互联网组网进程。

Basic Information
目录编号:
55990
目录名称:
STARLINK-5946
国际标识:
2023-042E
轨道中心:
EARTH
卫星名称:
星链-5946
卫星全名:
星链-5946 (STARLINK-5946 )
卫星状态:
在轨 (已飞行1267 天)
发射日期:
2023-03-24 UTC
国别 :
美国 (US)
星等 :
--
This satellite is enrolled in the Space Conjunction Data Service (SCDS) and the current flight risk assessment level is: High Risk
Orbit Information
数据来源 国际轨道数据
星历时间: 2026-09-11T06:38:08+0800
17小时前
查看轨道信息
半长轴: 6861.194km
偏心率: 0.0001236
轨道倾角: 43.005°
近地点辐角 272.791°
升交点赤经 93.221°
平近点角 87.280°
近地点: 482.208km
远地点: 483.906km
周期: 94.267分钟
每日圈数: 15.275776
Detailed Information
固有亮度:
5
最大亮度:
2.5
卫星平台:
Starlink v1.5
覆盖范围:
全球
运营商:
太空探索技术公司
运营商所在国:
美国
制造商(研发单位):
太空探索技术公司
制造商所在国:
美国
使用方式:
暂无
Satellite Introduction
星链(Starlink)计划是由太空探索技术公司(SpaceX)提出的一个巨型低轨卫星互联网星座项目,计划在2019年至2024年间在太空搭建由约1.2万颗卫星组成的“星链”网络,其中1584颗将部署在地球上空550千米处的近地轨道,并从2020年开始工作。该卫星仍在工作。
2D Orbit Map
3D Orbit Map
Orbit Altitude Analysis Chart
Orbit Inclination Analysis Chart
Orbit Comprehensive Analysis Chart
View Comprehensive Chart
Conjunction Data List
Event ID Objects TCA Miss Dist (km) Collision Risk Probability Collision Risk Index (CRI) Action
CDM_260913-225405-599006-356121
2026-09-13T
22:54:48+0000
0.418 km
远距离
2.416754E-4 高风险 0.83
CDM_260912-044005-599006-732622
2026-09-12T
04:40:35+0000
0.769 km
远距离
4.10333E-5 中风险 0.67
CDM_260913-161905-599006-274921
2026-09-13T
16:19:39+0000
0.842 km
远距离
3.104977E-5 中风险 0.65
CDM_260913-024705-599006-799122
2026-09-13T
02:47:48+0000
0.628 km
远距离
2.249337E-5 中风险 0.62
CDM_260913-175305-599006-274921
2026-09-13T
17:53:49+0000
1.085 km
极远距离
1.307733E-5 中风险 0.57
CDM_260912-145205-599006-732622
2026-09-12T
14:52:34+0000
1.358 km
极远距离
5.94416E-6 低风险 0.5
CDM_260913-150205-599005-714321
2026-09-13T
15:02:43+0000
1.463 km
极远距离
5.643993E-6 低风险 0.5
CDM_260912-030605-599006-732622
2026-09-12T
03:06:25+0000
1.463 km
极远距离
4.65032E-6 低风险 0.48
CDM_260912-105905-599006-656722
2026-09-12T
10:59:51+0000
1.431 km
极远距离
4.32969E-6 低风险 0.48
CDM_260913-212005-599006-356121
2026-09-13T
21:20:39+0000
1.618 km
极远距离
4.054648E-6 低风险 0.47
Miss Distance Evolution Trend with All Objects
Collision Probability Evolution Trend with All Objects